Time,TemperatureF,DewpointF,PressureIn,WindDirection,WindDirectionDegrees,WindSpeedMPH,WindSpeedGustMPH,Humidity,HourlyPrecipIn,Conditions,Clouds,dailyrainin,SolarRadiationWatts/m^2,SoftwareType,DateUTC
2013-11-21 00:02:00,33.3,30.7,30.23,SSW,211,0.0,0.0,90,0.00,,,0.00,0,LWC V2.00 B727,2013-11-21 07:02:00,
2013-11-21 00:07:00,33.3,30.7,30.23,SSW,212,0.0,0.0,90,0.00,,,0.00,0,LWC V2.00 B727,2013-11-21 07:07:00,
2013-11-21 00:12:00,33.3,30.7,30.23,SSW,211,0.0,0.0,90,0.00,,,0.00,0,LWC V2.00 B727,2013-11-21 07:12:00,
2013-11-21 00:17:00,33.3,30.7,30.23,SSW,211,0.0,0.0,90,0.00,,,0.00,0,LWC V2.00 B727,2013-11-21 07:17:00,
2013-11-21 00:22:00,33.4,30.8,30.23,SSW,211,0.0,0.0,90,0.00,,,0.00,0,LWC V2.00 B727,2013-11-21 07:22:00,
2013-11-21 00:27:00,33.4,30.8,30.23,SSW,212,0.0,0.0,90,0.00,,,0.00,0,LWC V2.00 B727,2013-11-21 07:27:00,
2013-11-21 00:32:00,33.4,30.8,30.23,SSW,212,0.0,0.0,90,0.00,,,0.00,0,LWC V2.00 B727,2013-11-21 07:32:00,
2013-11-21 00:37:00,33.4,30.8,30.23,SSW,211,0.0,0.0,90,0.00,,,0.00,0,LWC V2.00 B727,2013-11-21 07:37:00,
2013-11-21 00:42:00,33.5,31.2,30.24,SSW,212,0.0,2.0,91,0.00,,,0.00,0,LWC V2.00 B727,2013-11-21 07:42:00,
2013-11-21 00:47:00,33.7,31.4,30.24,SSW,212,0.0,0.0,91,0.00,,,0.00,0,LWC V2.00 B727,2013-11-21 07:47:00,
2013-11-21 00:52:00,33.7,31.4,30.24,SSW,212,0.0,1.0,91,0.00,,,0.00,0,LWC V2.00 B727,2013-11-21 07:52:00,
2013-11-21 00:57:00,33.7,31.4,30.24,SSW,213,2.0,3.0,91,0.00,,,0.00,0,LWC V2.00 B727,2013-11-21 07:57:00,
2013-11-21 01:02:00,33.8,31.5,30.24,WNW,299,2.0,3.0,91,0.00,,,0.00,0,LWC V2.00 B727,2013-11-21 08:02:00,
2013-11-21 01:07:00,33.9,31.6,30.24,WNW,300,2.0,4.0,91,0.00,,,0.00,0,LWC V2.00 B727,2013-11-21 08:07:00,
2013-11-21 01:12:00,34.0,31.7,30.24,WNW,300,0.0,2.0,91,0.00,,,0.00,0,LWC V2.00 B727,2013-11-21 08:12:00,
2013-11-21 01:17:00,34.2,31.9,30.24,WNW,300,1.0,3.0,91,0.00,,,0.00,0,LWC V2.00 B727,2013-11-21 08:17:00,
2013-11-21 01:22:00,34.2,31.9,30.24,WNW,288,2.0,2.0,91,0.00,,,0.00,0,LWC V2.00 B727,2013-11-21 08:22:00,
2013-11-21 01:27:00,34.3,32.0,30.23,WNW,288,2.0,2.0,91,0.00,,,0.00,0,LWC V2.00 B727,2013-11-21 08:27:00,
2013-11-21 01:32:00,34.4,32.0,30.23,WNW,292,3.0,5.0,91,0.00,,,0.00,0,LWC V2.00 B727,2013-11-21 08:32:00,
2013-11-21 01:37:00,34.4,32.0,30.23,WNW,297,0.0,3.0,91,0.00,,,0.00,0,LWC V2.00 B727,2013-11-21 08:37:00,
2013-11-21 01:42:00,34.4,32.0,30.23,WNW,297,1.0,1.0,91,0.00,,,0.00,0,LWC V2.00 B727,2013-11-21 08:42:00,
2013-11-21 01:47:00,34.4,32.0,30.23,WNW,296,0.0,0.0,91,0.00,,,0.00,0,LWC V2.00 B727,2013-11-21 08:47:00,
2013-11-21 01:52:00,34.4,32.0,30.23,WNW,296,0.0,0.0,91,0.00,,,0.00,0,LWC V2.00 B727,2013-11-21 08:52:00,
2013-11-21 01:57:00,34.5,32.1,30.23,WNW,296,0.0,2.0,91,0.00,,,0.00,0,LWC V2.00 B727,2013-11-21 08:57:00,
2013-11-21 02:02:00,34.5,32.1,30.23,WNW,297,0.0,0.0,91,0.00,,,0.00,0,LWC V2.00 B727,2013-11-21 09:02:00,
2013-11-21 02:07:00,34.6,32.2,30.23,WNW,296,0.0,0.0,91,0.00,,,0.00,0,LWC V2.00 B727,2013-11-21 09:07:00,
2013-11-21 02:12:00,34.6,32.2,30.24,WNW,296,0.0,0.0,91,0.00,,,0.00,0,LWC V2.00 B727,2013-11-21 09:12:00,
2013-11-21 02:17:00,34.6,32.2,30.23,WNW,297,0.0,0.0,91,0.00,,,0.00,0,LWC V2.00 B727,2013-11-21 09:17:00,
2013-11-21 02:22:00,34.7,32.3,30.24,WNW,296,0.0,0.0,91,0.00,,,0.00,0,LWC V2.00 B727,2013-11-21 09:22:00,
2013-11-21 02:27:00,34.6,32.2,30.24,WNW,296,0.0,0.0,91,0.00,,,0.00,0,LWC V2.00 B727,2013-11-21 09:27:00,
2013-11-21 02:32:00,34.6,32.2,30.24,WNW,296,0.0,0.0,91,0.00,,,0.00,0,LWC V2.00 B727,2013-11-21 09:32:00,
2013-11-21 02:37:00,34.6,32.2,30.24,WNW,297,0.0,0.0,91,0.00,,,0.00,0,LWC V2.00 B727,2013-11-21 09:37:00,
2013-11-21 02:42:00,34.6,32.2,30.24,WNW,296,2.0,2.0,91,0.00,,,0.00,0,LWC V2.00 B727,2013-11-21 09:42:00,
2013-11-21 02:47:00,34.6,32.2,30.24,WNW,296,2.0,2.0,91,0.00,,,0.00,0,LWC V2.00 B727,2013-11-21 09:47:00,
2013-11-21 02:52:00,34.6,32.2,30.25,WNW,296,0.0,0.0,91,0.00,,,0.00,0,LWC V2.00 B727,2013-11-21 09:52:00,
2013-11-21 02:57:00,34.6,32.2,30.24,WNW,296,0.0,1.0,91,0.00,,,0.00,0,LWC V2.00 B727,2013-11-21 09:57:00,
2013-11-21 03:02:00,34.6,32.2,30.24,WNW,296,1.0,3.0,91,0.00,,,0.00,0,LWC V2.00 B727,2013-11-21 10:02:00,
2013-11-21 03:07:00,34.6,32.2,30.24,WNW,297,1.0,2.0,91,0.00,,,0.00,0,LWC V2.00 B727,2013-11-21 10:07:00,
2013-11-21 03:12:00,34.6,32.2,30.25,WNW,298,2.0,4.0,91,0.00,,,0.00,0,LWC V2.00 B727,2013-11-21 10:12:00,
2013-11-21 03:17:00,34.7,32.3,30.24,WNW,298,0.0,1.0,91,0.00,,,0.00,0,LWC V2.00 B727,2013-11-21 10:17:00,
2013-11-21 03:22:00,34.6,32.2,30.24,WNW,298,1.0,3.0,91,0.00,,,0.00,0,LWC V2.00 B727,2013-11-21 10:22:00,
2013-11-21 03:27:00,34.6,32.2,30.25,WNW,298,1.0,2.0,91,0.00,,,0.00,0,LWC V2.00 B727,2013-11-21 10:27:00,
2013-11-21 03:32:00,34.5,32.1,30.25,WNW,298,0.0,1.0,91,0.00,,,0.00,0,LWC V2.00 B727,2013-11-21 10:32:00,
2013-11-21 03:37:00,34.4,32.0,30.25,WNW,297,1.0,4.0,91,0.00,,,0.00,0,LWC V2.00 B727,2013-11-21 10:37:00,
2013-11-21 03:42:00,34.4,32.0,30.25,WNW,297,0.0,2.0,91,0.00,,,0.00,0,LWC V2.00 B727,2013-11-21 10:42:00,
2013-11-21 03:47:00,34.4,32.0,30.25,WNW,297,0.0,3.0,91,0.00,,,0.00,0,LWC V2.00 B727,2013-11-21 10:47:00,
2013-11-21 03:52:00,34.4,32.0,30.25,WNW,297,1.0,2.0,91,0.00,,,0.00,0,LWC V2.00 B727,2013-11-21 10:52:00,
2013-11-21 03:57:00,34.4,32.0,30.25,WNW,297,0.0,0.0,91,0.00,,,0.00,0,LWC V2.00 B727,2013-11-21 10:57:00,
2013-11-21 04:02:00,34.4,32.3,30.25,WNW,297,0.0,2.0,92,0.00,,,0.00,0,LWC V2.00 B727,2013-11-21 11:02:00,
2013-11-21 04:07:00,34.4,32.3,30.25,WNW,297,0.0,0.0,92,0.00,,,0.00,0,LWC V2.00 B727,2013-11-21 11:07:00,
2013-11-21 04:12:00,34.4,32.3,30.25,WNW,296,0.0,0.0,92,0.00,,,0.00,0,LWC V2.00 B727,2013-11-21 11:12:00,
2013-11-21 04:17:00,34.4,32.3,30.25,WNW,296,0.0,0.0,92,0.00,,,0.00,0,LWC V2.00 B727,2013-11-21 11:17:00,
2013-11-21 04:22:00,34.4,32.3,30.25,WNW,297,0.0,0.0,92,0.00,,,0.00,0,LWC V2.00 B727,2013-11-21 11:22:00,
2013-11-21 04:27:00,34.4,32.3,30.25,WNW,297,0.0,0.0,92,0.00,,,0.00,0,LWC V2.00 B727,2013-11-21 11:27:00,
2013-11-21 04:32:00,34.4,32.3,30.26,WNW,296,0.0,0.0,92,0.00,,,0.00,0,LWC V2.00 B727,2013-11-21 11:32:00,
2013-11-21 04:37:00,34.4,32.3,30.26,WNW,297,0.0,0.0,92,0.00,,,0.00,0,LWC V2.00 B727,2013-11-21 11:37:00,
2013-11-21 04:42:00,34.4,32.3,30.27,WNW,297,0.0,0.0,92,0.00,,,0.00,0,LWC V2.00 B727,2013-11-21 11:42:00,
2013-11-21 04:47:00,34.4,32.3,30.26,WNW,296,0.0,0.0,92,0.00,,,0.00,0,LWC V2.00 B727,2013-11-21 11:47:00,
2013-11-21 04:52:00,34.4,32.3,30.27,WNW,297,0.0,0.0,92,0.00,,,0.00,0,LWC V2.00 B727,2013-11-21 11:52:00,
2013-11-21 04:57:00,34.4,32.3,30.26,WNW,297,0.0,0.0,92,0.00,,,0.00,0,LWC V2.00 B727,2013-11-21 11:57:00,
2013-11-21 05:02:00,34.4,32.3,30.26,WNW,296,0.0,0.0,92,0.00,,,0.00,0,LWC V2.00 B727,2013-11-21 12:02:00,
2013-11-21 05:07:00,34.5,32.4,30.26,WNW,296,0.0,0.0,92,0.00,,,0.00,0,LWC V2.00 B727,2013-11-21 12:07:00,
2013-11-21 05:12:00,34.6,32.5,30.26,WNW,297,0.0,0.0,92,0.00,,,0.00,0,LWC V2.00 B727,2013-11-21 12:12:00,
2013-11-21 05:17:00,34.7,32.6,30.26,WNW,296,0.0,0.0,92,0.00,,,0.00,0,LWC V2.00 B727,2013-11-21 12:17:00,
2013-11-21 05:22:00,34.7,32.6,30.26,WNW,296,0.0,2.0,92,0.00,,,0.00,0,LWC V2.00 B727,2013-11-21 12:22:00,
2013-11-21 05:27:00,34.7,32.6,30.26,WNW,297,0.0,0.0,92,0.00,,,0.00,0,LWC V2.00 B727,2013-11-21 12:27:00,
2013-11-21 05:32:00,34.7,32.6,30.27,WNW,297,0.0,0.0,92,0.00,,,0.00,0,LWC V2.00 B727,2013-11-21 12:32:00,
2013-11-21 05:37:00,34.7,32.6,30.27,WNW,297,0.0,0.0,92,0.00,,,0.00,0,LWC V2.00 B727,2013-11-21 12:37:00,
2013-11-21 05:42:00,34.7,32.6,30.28,WNW,297,0.0,0.0,92,0.00,,,0.00,0,LWC V2.00 B727,2013-11-21 12:42:00,
2013-11-21 05:47:00,34.7,32.6,30.28,WNW,297,0.0,0.0,92,0.00,,,0.00,0,LWC V2.00 B727,2013-11-21 12:47:00,
2013-11-21 05:52:00,34.7,32.6,30.28,WNW,296,0.0,0.0,92,0.00,,,0.00,0,LWC V2.00 B727,2013-11-21 12:52:00,
2013-11-21 05:57:00,34.7,32.6,30.29,WNW,296,0.0,0.0,92,0.00,,,0.00,0,LWC V2.00 B727,2013-11-21 12:57:00,
2013-11-21 06:02:00,34.7,32.6,30.29,WNW,297,0.0,0.0,92,0.00,,,0.00,0,LWC V2.00 B727,2013-11-21 13:02:00,
2013-11-21 06:07:00,34.7,32.6,30.29,WNW,297,0.0,0.0,92,0.00,,,0.00,0,LWC V2.00 B727,2013-11-21 13:07:00,
2013-11-21 06:12:00,34.7,32.6,30.29,WNW,297,0.0,0.0,92,0.00,,,0.00,0,LWC V2.00 B727,2013-11-21 13:12:00,
2013-11-21 06:17:00,34.7,32.6,30.29,WNW,297,0.0,0.0,92,0.00,,,0.00,0,LWC V2.00 B727,2013-11-21 13:17:00,
2013-11-21 06:22:00,34.6,32.5,30.30,WNW,297,0.0,0.0,92,0.00,,,0.00,0,LWC V2.00 B727,2013-11-21 13:22:00,
2013-11-21 06:27:00,34.6,32.5,30.30,WNW,296,0.0,0.0,92,0.00,,,0.00,0,LWC V2.00 B727,2013-11-21 13:27:00,
2013-11-21 06:32:00,34.6,32.5,30.30,WNW,296,0.0,0.0,92,0.00,,,0.00,0,LWC V2.00 B727,2013-11-21 13:32:00,
2013-11-21 06:37:00,34.6,32.5,30.31,WNW,297,0.0,0.0,92,0.00,,,0.00,0,LWC V2.00 B727,2013-11-21 13:37:00,
2013-11-21 06:42:00,34.6,32.5,30.31,WNW,297,0.0,0.0,92,0.00,,,0.00,0,LWC V2.00 B727,2013-11-21 13:42:00,
2013-11-21 06:47:00,34.6,32.5,30.31,WNW,297,0.0,0.0,92,0.00,,,0.00,0,LWC V2.00 B727,2013-11-21 13:47:00,
2013-11-21 06:52:00,34.6,32.5,30.31,WNW,297,0.0,0.0,92,0.00,,,0.00,0,LWC V2.00 B727,2013-11-21 13:52:00,
2013-11-21 06:57:00,34.6,32.5,30.31,WNW,297,0.0,0.0,92,0.00,,,0.00,9,LWC V2.00 B727,2013-11-21 13:57:00,
2013-11-21 07:02:00,34.6,32.5,30.31,WNW,296,0.0,0.0,92,0.00,,,0.00,9,LWC V2.00 B727,2013-11-21 14:02:00,
2013-11-21 07:07:00,34.7,32.6,30.31,WNW,297,0.0,0.0,92,0.00,,,0.00,19,LWC V2.00 B727,2013-11-21 14:07:00,
2013-11-21 07:12:00,34.7,32.6,30.31,WNW,296,0.0,0.0,92,0.00,,,0.00,14,LWC V2.00 B727,2013-11-21 14:12:00,
2013-11-21 07:17:00,34.7,32.6,30.31,WNW,297,0.0,0.0,92,0.00,,,0.00,14,LWC V2.00 B727,2013-11-21 14:17:00,
2013-11-21 07:22:00,34.6,32.5,30.31,West,275,0.0,0.0,92,0.00,,,0.00,23,LWC V2.00 B727,2013-11-21 14:22:00,
2013-11-21 07:27:00,34.6,32.5,30.31,West,275,0.0,0.0,92,0.00,,,0.00,30,LWC V2.00 B727,2013-11-21 14:27:00,
2013-11-21 07:32:00,34.6,32.5,30.31,West,274,1.0,2.0,92,0.00,,,0.00,33,LWC V2.00 B727,2013-11-21 14:32:00,
2013-11-21 07:37:00,34.7,32.6,30.32,West,272,0.0,0.0,92,0.00,,,0.00,44,LWC V2.00 B727,2013-11-21 14:37:00,
2013-11-21 07:42:00,34.8,32.7,30.32,SSE,154,1.0,2.0,92,0.00,,,0.00,63,LWC V2.00 B727,2013-11-21 14:42:00,
2013-11-21 07:47:00,34.9,32.8,30.32,SSE,153,0.0,0.0,92,0.00,,,0.00,163,LWC V2.00 B727,2013-11-21 14:47:00,
2013-11-21 07:52:00,35.1,33.0,30.32,SSE,154,2.0,3.0,92,0.00,,,0.00,239,LWC V2.00 B727,2013-11-21 14:52:00,
2013-11-21 07:57:00,35.5,33.4,30.32,SSE,153,4.0,4.0,92,0.00,,,0.00,276,LWC V2.00 B727,2013-11-21 14:57:00,
2013-11-21 08:02:00,35.6,33.5,30.32,SSE,154,1.0,3.0,92,0.00,,,0.00,265,LWC V2.00 B727,2013-11-21 15:02:00,
2013-11-21 08:07:00,35.9,33.8,30.32,SSE,153,1.0,2.0,92,0.00,,,0.00,264,LWC V2.00 B727,2013-11-21 15:07:00,
2013-11-21 08:12:00,36.2,34.1,30.33,SSE,153,0.0,2.0,92,0.00,,,0.00,267,LWC V2.00 B727,2013-11-21 15:12:00,
2013-11-21 08:17:00,36.5,34.4,30.33,SSE,154,0.0,2.0,92,0.00,,,0.00,313,LWC V2.00 B727,2013-11-21 15:17:00,
2013-11-21 08:22:00,36.9,34.8,30.33,SSE,153,1.0,3.0,92,0.00,,,0.00,172,LWC V2.00 B727,2013-11-21 15:22:00,
2013-11-21 08:27:00,37.2,35.1,30.33,SSE,154,0.0,0.0,92,0.00,,,0.00,330,LWC V2.00 B727,2013-11-21 15:27:00,
2013-11-21 08:32:00,37.6,35.5,30.33,SSE,153,0.0,2.0,92,0.00,,,0.00,387,LWC V2.00 B727,2013-11-21 15:32:00,
2013-11-21 08:37:00,37.9,35.8,30.33,SSE,154,0.0,0.0,92,0.00,,,0.00,390,LWC V2.00 B727,2013-11-21 15:37:00,
2013-11-21 08:42:00,38.3,36.2,30.34,SSW,200,2.0,3.0,92,0.00,,,0.00,378,LWC V2.00 B727,2013-11-21 15:42:00,
2013-11-21 08:47:00,38.7,36.6,30.34,WNW,291,2.0,4.0,92,0.00,,,0.00,411,LWC V2.00 B727,2013-11-21 15:47:00,
2013-11-21 08:52:00,38.9,36.8,30.34,West,272,0.0,5.0,92,0.00,,,0.00,185,LWC V2.00 B727,2013-11-21 15:52:00,
2013-11-21 08:57:00,39.1,36.7,30.34,WSW,256,0.0,2.0,91,0.00,,,0.00,457,LWC V2.00 B727,2013-11-21 15:57:00,
2013-11-21 09:02:00,39.6,37.2,30.34,WSW,256,0.0,0.0,91,0.00,,,0.00,380,LWC V2.00 B727,2013-11-21 16:02:00,
2013-11-21 09:07:00,40.1,37.7,30.34,WSW,257,0.0,2.0,91,0.00,,,0.00,114,LWC V2.00 B727,2013-11-21 16:07:00,
2013-11-21 09:12:00,40.1,37.1,30.35,WNW,287,0.0,1.0,89,0.00,,,0.00,415,LWC V2.00 B727,2013-11-21 16:12:00,
2013-11-21 09:17:00,40.2,36.6,30.34,WNW,296,2.0,5.0,87,0.00,,,0.00,285,LWC V2.00 B727,2013-11-21 16:17:00,
2013-11-21 09:22:00,40.5,36.6,30.34,WNW,290,4.0,6.0,86,0.00,,,0.00,285,LWC V2.00 B727,2013-11-21 16:22:00,
2013-11-21 09:27:00,40.6,36.5,30.33,NW,310,3.0,4.0,85,0.00,,,0.00,234,LWC V2.00 B727,2013-11-21 16:27:00,
2013-11-21 09:32:00,40.7,36.5,30.33,NW,326,2.0,5.0,85,0.00,,,0.00,390,LWC V2.00 B727,2013-11-21 16:32:00,
2013-11-21 09:37:00,40.9,36.4,30.34,NW,325,3.0,5.0,84,0.00,,,0.00,527,LWC V2.00 B727,2013-11-21 16:37:00,
2013-11-21 09:42:00,41.2,36.7,30.34,NW,319,2.0,4.0,84,0.00,,,0.00,561,LWC V2.00 B727,2013-11-21 16:42:00,
2013-11-21 09:47:00,41.6,36.8,30.33,NNW,333,1.0,5.0,83,0.00,,,0.00,538,LWC V2.00 B727,2013-11-21 16:47:00,
2013-11-21 09:52:00,41.9,36.8,30.33,NNW,327,1.0,3.0,82,0.00,,,0.00,455,LWC V2.00 B727,2013-11-21 16:52:00,
2013-11-21 09:58:00,42.1,36.7,30.33,NNW,330,1.0,1.0,81,0.00,,,0.00,482,LWC V2.00 B727,2013-11-21 16:58:00,
2013-11-21 10:03:00,42.4,37.0,30.33,NW,325,4.0,5.0,81,0.00,,,0.00,480,LWC V2.00 B727,2013-11-21 17:03:00,
2013-11-21 10:08:00,42.8,37.1,30.33,WNW,295,0.0,3.0,80,0.00,,,0.00,497,LWC V2.00 B727,2013-11-21 17:08:00,
2013-11-21 10:13:00,43.2,36.8,30.33,NW,318,1.0,3.0,78,0.00,,,0.00,575,LWC V2.00 B727,2013-11-21 17:13:00,
2013-11-21 10:18:00,43.7,36.6,30.33,NW,318,0.0,1.0,76,0.00,,,0.00,534,LWC V2.00 B727,2013-11-21 17:18:00,
2013-11-21 10:23:00,44.1,37.0,30.33,NW,304,2.0,4.0,76,0.00,,,0.00,425,LWC V2.00 B727,2013-11-21 17:23:00,
2013-11-21 10:28:00,44.3,35.9,30.32,NW,304,3.0,3.0,72,0.00,,,0.00,213,LWC V2.00 B727,2013-11-21 17:28:00,
2013-11-21 10:33:00,44.5,36.0,30.30,NW,311,2.0,4.0,72,0.00,,,0.00,353,LWC V2.00 B727,2013-11-21 17:33:00,
2013-11-21 10:38:00,44.6,36.5,30.30,NW,311,2.0,3.0,73,0.00,,,0.00,411,LWC V2.00 B727,2013-11-21 17:38:00,
2013-11-21 10:43:00,45.0,36.5,30.30,NW,311,0.0,0.0,72,0.00,,,0.00,621,LWC V2.00 B727,2013-11-21 17:43:00,
2013-11-21 10:48:00,45.3,36.1,30.31,NW,311,0.0,5.0,70,0.00,,,0.00,353,LWC V2.00 B727,2013-11-21 17:48:00,
2013-11-21 10:53:00,45.4,36.2,30.31,NW,304,2.0,2.0,70,0.00,,,0.00,160,LWC V2.00 B727,2013-11-21 17:53:00,
2013-11-21 10:58:00,45.4,35.8,30.31,WNW,302,3.0,3.0,69,0.00,,,0.00,188,LWC V2.00 B727,2013-11-21 17:58:00,
2013-11-21 11:03:00,45.3,36.1,30.31,West,260,3.0,6.0,70,0.00,,,0.00,155,LWC V2.00 B727,2013-11-21 18:03:00,
2013-11-21 11:08:00,45.1,36.3,30.31,SW,215,4.0,5.0,71,0.00,,,0.00,160,LWC V2.00 B727,2013-11-21 18:08:00,
2013-11-21 11:13:00,45.0,36.2,30.32,WSW,247,2.0,10.0,71,0.00,,,0.00,213,LWC V2.00 B727,2013-11-21 18:13:00,
2013-11-21 11:18:00,44.7,36.2,30.32,SW,215,5.0,5.0,72,0.00,,,0.00,322,LWC V2.00 B727,2013-11-21 18:18:00,
2013-11-21 11:23:00,44.7,35.9,30.32,SW,234,4.0,7.0,71,0.00,,,0.00,267,LWC V2.00 B727,2013-11-21 18:23:00,
2013-11-21 11:28:00,44.4,35.9,30.33,West,281,1.0,9.0,72,0.00,,,0.00,272,LWC V2.00 B727,2013-11-21 18:28:00,
2013-11-21 11:33:00,44.2,36.4,30.33,WNW,300,4.0,7.0,74,0.00,,,0.00,250,LWC V2.00 B727,2013-11-21 18:33:00,
2013-11-21 11:38:00,43.8,36.4,30.33,WSW,255,1.0,5.0,75,0.00,,,0.00,220,LWC V2.00 B727,2013-11-21 18:38:00,
2013-11-21 11:43:00,43.6,36.9,30.33,WNW,300,4.0,7.0,77,0.00,,,0.00,241,LWC V2.00 B727,2013-11-21 18:43:00,
2013-11-21 11:48:00,43.5,36.8,30.32,SSW,209,1.0,7.0,77,0.00,,,0.00,241,LWC V2.00 B727,2013-11-21 18:48:00,
2013-11-21 11:53:00,43.5,36.8,30.32,WSW,245,1.0,6.0,77,0.00,,,0.00,200,LWC V2.00 B727,2013-11-21 18:53:00,
2013-11-21 11:58:00,43.3,36.3,30.33,West,263,3.0,7.0,76,0.00,,,0.00,174,LWC V2.00 B727,2013-11-21 18:58:00,
2013-11-21 12:03:00,43.2,36.5,30.33,West,259,2.0,5.0,77,0.00,,,0.00,185,LWC V2.00 B727,2013-11-21 19:03:00,
2013-11-21 12:08:00,43.1,36.4,30.32,SW,233,5.0,6.0,77,0.00,,,0.00,204,LWC V2.00 B727,2013-11-21 19:08:00,
2013-11-21 12:13:00,43.1,36.4,30.32,WSW,244,3.0,6.0,77,0.00,,,0.00,200,LWC V2.00 B727,2013-11-21 19:13:00,
2013-11-21 12:18:00,43.2,36.8,30.32,SW,225,5.0,5.0,78,0.00,,,0.00,188,LWC V2.00 B727,2013-11-21 19:18:00,
2013-11-21 12:23:00,43.2,36.8,30.31,West,265,0.0,4.0,78,0.00,,,0.00,206,LWC V2.00 B727,2013-11-21 19:23:00,
2013-11-21 12:28:00,43.2,36.5,30.31,West,273,4.0,6.0,77,0.00,,,0.00,220,LWC V2.00 B727,2013-11-21 19:28:00,
2013-11-21 12:33:00,43.2,36.8,30.31,West,269,0.0,3.0,78,0.00,,,0.00,209,LWC V2.00 B727,2013-11-21 19:33:00,
2013-11-21 12:38:00,43.3,36.6,30.31,WNW,285,2.0,4.0,77,0.00,,,0.00,204,LWC V2.00 B727,2013-11-21 19:38:00,
2013-11-21 12:43:00,43.4,36.0,30.31,SW,234,1.0,5.0,75,0.00,,,0.00,213,LWC V2.00 B727,2013-11-21 19:43:00,
2013-11-21 12:48:00,43.5,36.1,30.30,SW,233,3.0,5.0,75,0.00,,,0.00,206,LWC V2.00 B727,2013-11-21 19:48:00,
2013-11-21 12:53:00,43.6,35.9,30.31,WSW,254,2.0,7.0,74,0.00,,,0.00,114,LWC V2.00 B727,2013-11-21 19:53:00,
2013-11-21 12:58:00,43.5,35.1,30.31,WSW,256,2.0,7.0,72,0.00,,,0.00,137,LWC V2.00 B727,2013-11-21 19:58:00,
2013-11-21 13:03:00,43.4,35.3,30.31,WSW,241,2.0,4.0,73,0.00,,,0.00,130,LWC V2.00 B727,2013-11-21 20:03:00,
2013-11-21 13:08:00,43.4,35.3,30.30,SSW,213,2.0,3.0,73,0.00,,,0.00,323,LWC V2.00 B727,2013-11-21 20:08:00,
2013-11-21 13:13:00,43.7,36.0,30.30,SW,233,4.0,4.0,74,0.00,,,0.00,385,LWC V2.00 B727,2013-11-21 20:13:00,
2013-11-21 13:18:00,44.0,35.6,30.30,WSW,250,4.0,5.0,72,0.00,,,0.00,381,LWC V2.00 B727,2013-11-21 20:18:00,
2013-11-21 13:23:00,44.4,35.9,30.30,SW,217,1.0,2.0,72,0.00,,,0.00,267,LWC V2.00 B727,2013-11-21 20:23:00,
2013-11-21 13:28:00,44.8,35.6,30.30,WNW,302,0.0,2.0,70,0.00,,,0.00,257,LWC V2.00 B727,2013-11-21 20:28:00,
2013-11-21 13:33:00,45.0,36.2,30.30,WSW,240,4.0,7.0,71,0.00,,,0.00,316,LWC V2.00 B727,2013-11-21 20:33:00,
2013-11-21 13:38:00,45.2,36.0,30.30,SSW,207,2.0,6.0,70,0.00,,,0.00,141,LWC V2.00 B727,2013-11-21 20:38:00,
2013-11-21 13:43:00,45.2,36.0,30.30,WSW,252,3.0,6.0,70,0.00,,,0.00,118,LWC V2.00 B727,2013-11-21 20:43:00,
2013-11-21 13:48:00,45.0,35.8,30.30,SW,230,4.0,5.0,70,0.00,,,0.00,81,LWC V2.00 B727,2013-11-21 20:48:00,
2013-11-21 13:53:00,44.8,35.6,30.30,WNW,288,2.0,5.0,70,0.00,,,0.00,155,LWC V2.00 B727,2013-11-21 20:53:00,
2013-11-21 13:58:00,44.5,35.7,30.30,NW,306,5.0,5.0,71,0.00,,,0.00,142,LWC V2.00 B727,2013-11-21 20:58:00,
2013-11-21 14:03:00,44.5,36.0,30.31,WNW,300,1.0,3.0,72,0.00,,,0.00,139,LWC V2.00 B727,2013-11-21 21:03:00,
2013-11-21 14:08:00,44.4,35.2,30.31,WSW,241,3.0,7.0,70,0.00,,,0.00,163,LWC V2.00 B727,2013-11-21 21:08:00,
2013-11-21 14:13:00,44.5,35.7,30.31,WSW,237,2.0,5.0,71,0.00,,,0.00,172,LWC V2.00 B727,2013-11-21 21:13:00,
2013-11-21 14:18:00,44.5,35.7,30.31,SW,216,7.0,7.0,71,0.00,,,0.00,165,LWC V2.00 B727,2013-11-21 21:18:00,
2013-11-21 14:23:00,44.5,35.3,30.31,West,265,3.0,6.0,70,0.00,,,0.00,90,LWC V2.00 B727,2013-11-21 21:23:00,
2013-11-21 14:28:00,44.5,35.7,30.31,West,281,4.0,6.0,71,0.00,,,0.00,121,LWC V2.00 B727,2013-11-21 21:28:00,
2013-11-21 14:33:00,44.4,35.6,30.32,SW,218,4.0,8.0,71,0.00,,,0.00,102,LWC V2.00 B727,2013-11-21 21:33:00,
2013-11-21 14:38:00,44.4,35.9,30.32,WSW,248,3.0,4.0,72,0.00,,,0.00,84,LWC V2.00 B727,2013-11-21 21:38:00,
2013-11-21 14:43:00,44.3,35.9,30.32,WSW,253,1.0,5.0,72,0.00,,,0.00,70,LWC V2.00 B727,2013-11-21 21:43:00,
2013-11-21 14:48:00,44.2,36.4,30.32,WSW,245,4.0,7.0,74,0.00,,,0.00,156,LWC V2.00 B727,2013-11-21 21:48:00,
2013-11-21 14:53:00,43.9,36.5,30.32,West,259,2.0,5.0,75,0.00,,,0.01,107,LWC V2.00 B727,2013-11-21 21:53:00,
2013-11-21 14:58:00,43.7,36.6,30.32,West,259,0.0,3.0,76,0.00,,,0.01,72,LWC V2.00 B727,2013-11-21 21:58:00,
2013-11-21 15:03:00,43.5,36.8,30.33,WSW,238,1.0,7.0,77,0.00,,,0.01,83,LWC V2.00 B727,2013-11-21 22:03:00,
2013-11-21 15:08:00,43.3,36.3,30.33,WSW,250,4.0,5.0,76,0.00,,,0.01,77,LWC V2.00 B727,2013-11-21 22:08:00,
2013-11-21 15:13:00,43.2,36.5,30.33,SSW,209,2.0,4.0,77,0.00,,,0.01,86,LWC V2.00 B727,2013-11-21 22:13:00,
2013-11-21 15:18:00,43.0,36.0,30.33,WSW,245,2.0,8.0,76,0.00,,,0.01,58,LWC V2.00 B727,2013-11-21 22:18:00,
2013-11-21 15:23:00,42.9,35.5,30.33,SSW,207,5.0,6.0,75,0.00,,,0.01,32,LWC V2.00 B727,2013-11-21 22:23:00,
2013-11-21 15:28:00,42.7,35.7,30.33,SSW,202,5.0,10.0,76,0.00,,,0.01,23,LWC V2.00 B727,2013-11-21 22:28:00,
2013-11-21 15:33:00,42.4,35.0,30.33,SSW,211,6.0,9.0,75,0.00,,,0.01,21,LWC V2.00 B727,2013-11-21 22:33:00,
2013-11-21 15:38:00,42.2,35.5,30.34,South,187,4.0,5.0,77,0.00,,,0.01,51,LWC V2.00 B727,2013-11-21 22:38:00,
2013-11-21 15:43:00,41.9,35.5,30.34,WSW,239,3.0,4.0,78,0.00,,,0.01,63,LWC V2.00 B727,2013-11-21 22:43:00,
2013-11-21 15:48:00,41.7,35.7,30.34,West,265,2.0,4.0,79,0.00,,,0.01,37,LWC V2.00 B727,2013-11-21 22:48:00,
2013-11-21 15:53:00,41.4,35.4,30.34,SSW,195,4.0,7.0,79,0.00,,,0.01,32,LWC V2.00 B727,2013-11-21 22:53:00,
2013-11-21 15:58:00,41.1,35.4,30.34,SW,218,1.0,6.0,80,0.00,,,0.01,37,LWC V2.00 B727,2013-11-21 22:58:00,
2013-11-21 16:03:00,40.9,35.5,30.35,SW,217,3.0,6.0,81,0.00,,,0.01,35,LWC V2.00 B727,2013-11-21 23:03:00,
2013-11-21 16:08:00,40.7,35.6,30.35,SW,215,5.0,7.0,82,0.00,,,0.01,28,LWC V2.00 B727,2013-11-21 23:08:00,
2013-11-21 16:13:00,40.5,35.8,30.35,SW,215,2.0,5.0,83,0.00,,,0.01,25,LWC V2.00 B727,2013-11-21 23:13:00,
2013-11-21 16:18:00,40.4,36.0,30.35,SW,215,0.0,3.0,84,0.00,,,0.01,16,LWC V2.00 B727,2013-11-21 23:18:00,
2013-11-21 16:23:00,40.2,35.8,30.35,SW,215,2.0,5.0,84,0.00,,,0.01,11,LWC V2.00 B727,2013-11-21 23:23:00,
2013-11-21 16:28:00,40.1,36.0,30.35,SW,215,0.0,3.0,85,0.00,,,0.01,14,LWC V2.00 B727,2013-11-21 23:28:00,
2013-11-21 16:33:00,40.0,35.9,30.35,SW,215,0.0,2.0,85,0.00,,,0.01,12,LWC V2.00 B727,2013-11-21 23:33:00,
2013-11-21 16:38:00,39.8,35.7,30.36,SW,215,5.0,5.0,85,0.00,,,0.01,7,LWC V2.00 B727,2013-11-21 23:38:00,
2013-11-21 16:43:00,39.7,35.9,30.36,SW,215,0.0,1.0,86,0.00,,,0.01,0,LWC V2.00 B727,2013-11-21 23:43:00,
2013-11-21 16:48:00,39.7,35.9,30.35,SW,215,0.0,1.0,86,0.00,,,0.01,0,LWC V2.00 B727,2013-11-21 23:48:00,
2013-11-21 16:53:00,39.7,35.9,30.35,SW,215,0.0,0.0,86,0.00,,,0.01,0,LWC V2.00 B727,2013-11-21 23:53:00,
2013-11-21 16:58:00,39.7,35.9,30.36,SW,215,0.0,0.0,86,0.00,,,0.01,0,LWC V2.00 B727,2013-11-21 23:58:00,
2013-11-21 17:03:00,39.6,35.8,30.36,SW,215,0.0,0.0,86,0.00,,,0.01,0,LWC V2.00 B727,2013-11-22 00:03:00,
2013-11-21 17:08:00,39.6,35.8,30.36,SW,215,2.0,3.0,86,0.00,,,0.01,0,LWC V2.00 B727,2013-11-22 00:08:00,
2013-11-21 17:13:00,39.6,35.8,30.36,SW,215,0.0,0.0,86,0.00,,,0.01,0,LWC V2.00 B727,2013-11-22 00:13:00,
2013-11-21 17:18:00,39.5,35.7,30.36,SW,215,0.0,0.0,86,0.00,,,0.01,0,LWC V2.00 B727,2013-11-22 00:18:00,
2013-11-21 17:23:00,39.4,35.9,30.36,SW,215,0.0,0.0,87,0.00,,,0.01,0,LWC V2.00 B727,2013-11-22 00:23:00,
2013-11-21 17:28:00,39.3,35.5,30.37,SW,215,0.0,0.0,86,0.00,,,0.01,0,LWC V2.00 B727,2013-11-22 00:28:00,
2013-11-21 17:33:00,39.2,35.7,30.37,SW,215,0.0,0.0,87,0.00,,,0.01,0,LWC V2.00 B727,2013-11-22 00:33:00,
2013-11-21 17:38:00,39.2,35.7,30.38,SW,215,0.0,0.0,87,0.00,,,0.01,0,LWC V2.00 B727,2013-11-22 00:38:00,
2013-11-21 17:43:00,39.1,35.6,30.38,SW,215,0.0,0.0,87,0.00,,,0.01,0,LWC V2.00 B727,2013-11-22 00:43:00,
2013-11-21 17:48:00,39.0,35.5,30.38,SW,215,0.0,0.0,87,0.00,,,0.01,0,LWC V2.00 B727,2013-11-22 00:48:00,
2013-11-21 17:53:00,38.9,35.4,30.38,SW,215,0.0,0.0,87,0.00,,,0.01,0,LWC V2.00 B727,2013-11-22 00:53:00,
2013-11-21 17:58:00,38.8,35.3,30.39,SW,215,0.0,0.0,87,0.00,,,0.01,0,LWC V2.00 B727,2013-11-22 00:58:00,
2013-11-21 18:03:00,38.7,35.2,30.39,SW,215,0.0,0.0,87,0.00,,,0.01,0,LWC V2.00 B727,2013-11-22 01:03:00,
2013-11-21 18:08:00,38.7,35.2,30.39,SW,215,0.0,0.0,87,0.00,,,0.01,0,LWC V2.00 B727,2013-11-22 01:08:00,
2013-11-21 18:13:00,38.6,35.1,30.38,SW,215,0.0,0.0,87,0.00,,,0.01,0,LWC V2.00 B727,2013-11-22 01:13:00,
2013-11-21 18:18:00,38.6,35.1,30.39,SW,215,0.0,0.0,87,0.00,,,0.01,0,LWC V2.00 B727,2013-11-22 01:18:00,
2013-11-21 18:23:00,38.5,35.0,30.39,SW,215,0.0,0.0,87,0.00,,,0.01,0,LWC V2.00 B727,2013-11-22 01:23:00,
2013-11-21 18:28:00,38.5,35.0,30.40,SW,215,0.0,0.0,87,0.00,,,0.01,0,LWC V2.00 B727,2013-11-22 01:28:00,
2013-11-21 18:33:00,38.5,35.0,30.39,SW,215,0.0,0.0,87,0.00,,,0.01,0,LWC V2.00 B727,2013-11-22 01:33:00,
2013-11-21 18:38:00,38.5,35.0,30.40,SW,215,0.0,0.0,87,0.00,,,0.01,0,LWC V2.00 B727,2013-11-22 01:38:00,
2013-11-21 18:43:00,38.6,35.4,30.40,SW,215,2.0,2.0,88,0.00,,,0.01,0,LWC V2.00 B727,2013-11-22 01:43:00,
2013-11-21 18:48:00,38.8,35.6,30.41,SW,215,4.0,4.0,88,0.00,,,0.02,0,LWC V2.00 B727,2013-11-22 01:48:00,
2013-11-21 18:53:00,38.9,35.7,30.41,SW,215,0.0,2.0,88,0.14,,,0.03,0,LWC V2.00 B727,2013-11-22 01:53:00,
2013-11-21 18:58:00,39.2,36.0,30.41,South,188,2.0,8.0,88,0.09,,,0.03,0,LWC V2.00 B727,2013-11-22 01:58:00,
2013-11-21 19:03:00,39.2,36.0,30.40,SSW,200,0.0,2.0,88,0.09,,,0.04,0,LWC V2.00 B727,2013-11-22 02:03:00,
2013-11-21 19:08:00,39.1,35.9,30.40,SSW,200,0.0,1.0,88,0.06,,,0.04,0,LWC V2.00 B727,2013-11-22 02:08:00,
2013-11-21 19:09:00,39.1,35.9,30.40,SSW,200,0.0,0.0,88,0.05,,,0.04,0,LWC V2.00 B727,2013-11-22 02:09:00,
2013-11-21 19:14:00,39.1,35.9,30.40,SSW,200,0.0,0.0,88,0.04,,,0.04,0,LWC V2.00 B727,2013-11-22 02:14:00,
2013-11-21 19:19:00,39.0,35.8,30.40,SSW,200,0.0,0.0,88,0.00,,,0.04,0,LWC V2.00 B727,2013-11-22 02:19:00,
2013-11-21 19:24:00,38.9,35.7,30.40,SSW,200,0.0,0.0,88,0.00,,,0.04,0,LWC V2.00 B727,2013-11-22 02:24:00,
2013-11-21 19:29:00,38.8,35.6,30.40,SSW,200,2.0,2.0,88,0.00,,,0.04,0,LWC V2.00 B727,2013-11-22 02:29:00,
2013-11-21 19:34:00,38.7,35.5,30.40,SW,220,2.0,2.0,88,0.00,,,0.04,0,LWC V2.00 B727,2013-11-22 02:34:00,
2013-11-21 19:39:00,38.5,35.3,30.40,SW,218,1.0,2.0,88,0.00,,,0.04,0,LWC V2.00 B727,2013-11-22 02:39:00,
2013-11-21 19:44:00,38.3,35.1,30.40,SW,218,0.0,0.0,88,0.00,,,0.04,0,LWC V2.00 B727,2013-11-22 02:44:00,
2013-11-21 19:49:00,38.3,35.1,30.41,SW,218,0.0,0.0,88,0.00,,,0.04,0,LWC V2.00 B727,2013-11-22 02:49:00,
2013-11-21 19:54:00,38.2,35.2,30.40,SW,218,0.0,0.0,89,0.00,,,0.04,0,LWC V2.00 B727,2013-11-22 02:54:00,
2013-11-21 19:59:00,38.1,34.9,30.40,SW,218,0.0,0.0,88,0.00,,,0.04,0,LWC V2.00 B727,2013-11-22 02:59:00,
2013-11-21 20:04:00,37.9,34.7,30.40,SW,218,0.0,0.0,88,0.00,,,0.04,0,LWC V2.00 B727,2013-11-22 03:04:00,
2013-11-21 20:09:00,37.8,34.9,30.40,SW,218,1.0,2.0,89,0.00,,,0.04,0,LWC V2.00 B727,2013-11-22 03:09:00,
2013-11-21 20:14:00,37.7,34.8,30.40,SW,218,0.0,0.0,89,0.00,,,0.04,0,LWC V2.00 B727,2013-11-22 03:14:00,
2013-11-21 20:19:00,37.7,34.8,30.40,SW,218,0.0,0.0,89,0.00,,,0.04,0,LWC V2.00 B727,2013-11-22 03:19:00,
2013-11-21 20:24:00,37.6,34.7,30.40,SW,218,0.0,0.0,89,0.00,,,0.04,0,LWC V2.00 B727,2013-11-22 03:24:00,
2013-11-21 20:29:00,37.5,34.6,30.41,SW,218,3.0,3.0,89,0.00,,,0.04,0,LWC V2.00 B727,2013-11-22 03:29:00,
2013-11-21 20:34:00,37.4,34.5,30.41,SW,218,2.0,3.0,89,0.00,,,0.04,0,LWC V2.00 B727,2013-11-22 03:34:00,
2013-11-21 20:39:00,37.4,34.5,30.41,South,180,3.0,4.0,89,0.00,,,0.04,0,LWC V2.00 B727,2013-11-22 03:39:00,
2013-11-21 20:44:00,37.3,34.4,30.42,SSE,155,2.0,5.0,89,0.00,,,0.04,0,LWC V2.00 B727,2013-11-22 03:44:00,
2013-11-21 20:49:00,37.3,34.4,30.42,South,173,2.0,11.0,89,0.00,,,0.05,0,LWC V2.00 B727,2013-11-22 03:49:00,
2013-11-21 20:54:00,37.6,34.9,30.42,South,186,4.0,7.0,90,0.00,,,0.05,0,LWC V2.00 B727,2013-11-22 03:54:00,
2013-11-21 20:59:00,38.0,35.1,30.42,South,191,5.0,10.0,89,0.00,,,0.05,0,LWC V2.00 B727,2013-11-22 03:59:00,
2013-11-21 21:04:00,38.2,35.2,30.42,SSW,197,3.0,7.0,89,0.00,,,0.05,0,LWC V2.00 B727,2013-11-22 04:04:00,
2013-11-21 21:09:00,38.4,35.4,30.43,WSW,244,5.0,5.0,89,0.00,,,0.06,0,LWC V2.00 B727,2013-11-22 04:09:00,
2013-11-21 21:14:00,38.5,35.5,30.43,WSW,237,4.0,4.0,89,0.00,,,0.06,0,LWC V2.00 B727,2013-11-22 04:14:00,
2013-11-21 21:19:00,38.5,35.5,30.42,WSW,238,0.0,1.0,89,0.00,,,0.06,0,LWC V2.00 B727,2013-11-22 04:19:00,
2013-11-21 21:24:00,38.5,35.5,30.42,WSW,238,0.0,0.0,89,0.04,,,0.07,0,LWC V2.00 B727,2013-11-22 04:24:00,
2013-11-21 21:29:00,38.5,35.5,30.42,WSW,238,0.0,1.0,89,0.04,,,0.07,0,LWC V2.00 B727,2013-11-22 04:29:00,
2013-11-21 21:34:00,38.5,35.5,30.42,WSW,237,0.0,0.0,89,0.04,,,0.07,0,LWC V2.00 B727,2013-11-22 04:34:00,
2013-11-21 21:39:00,38.4,35.4,30.42,WSW,238,0.0,0.0,89,0.00,,,0.07,0,LWC V2.00 B727,2013-11-22 04:39:00,
2013-11-21 21:44:00,38.4,35.4,30.42,WSW,238,0.0,0.0,89,0.00,,,0.07,0,LWC V2.00 B727,2013-11-22 04:44:00,
2013-11-21 21:49:00,38.4,35.4,30.42,WSW,238,0.0,0.0,89,0.00,,,0.07,0,LWC V2.00 B727,2013-11-22 04:49:00,
2013-11-21 21:54:00,38.3,35.3,30.41,WSW,238,0.0,0.0,89,0.00,,,0.07,0,LWC V2.00 B727,2013-11-22 04:54:00,
2013-11-21 21:59:00,38.3,35.3,30.41,WSW,238,0.0,1.0,89,0.00,,,0.08,0,LWC V2.00 B727,2013-11-22 04:59:00,
2013-11-21 22:01:00,38.3,35.3,30.41,WSW,238,1.0,2.0,89,0.00,,,0.08,0,LWC V2.00 B727,2013-11-22 05:01:00,
2013-11-21 22:02:00,38.3,35.3,30.42,WSW,238,1.0,2.0,89,0.00,,,0.08,0,LWC V2.00 B727,2013-11-22 05:02:00,
2013-11-21 22:07:00,38.2,35.5,30.42,WSW,238,0.0,0.0,90,0.05,,,0.08,0,LWC V2.00 B727,2013-11-22 05:07:00,
2013-11-21 22:12:00,38.2,35.5,30.41,WSW,238,0.0,0.0,90,0.05,,,0.09,0,LWC V2.00 B727,2013-11-22 05:12:00,
2013-11-21 22:17:00,38.2,35.5,30.42,WSW,238,0.0,0.0,90,0.05,,,0.09,0,LWC V2.00 B727,2013-11-22 05:17:00,
2013-11-21 22:22:00,38.2,35.5,30.42,WSW,238,0.0,0.0,90,0.04,,,0.09,0,LWC V2.00 B727,2013-11-22 05:22:00,
2013-11-21 22:27:00,38.2,35.5,30.42,WSW,238,0.0,0.0,90,0.04,,,0.10,0,LWC V2.00 B727,2013-11-22 05:27:00,
2013-11-21 22:32:00,38.1,35.4,30.42,WSW,237,0.0,0.0,90,0.07,,,0.11,0,LWC V2.00 B727,2013-11-22 05:32:00,
2013-11-21 22:37:00,38.0,35.3,30.42,WSW,237,0.0,3.0,90,0.07,,,0.11,0,LWC V2.00 B727,2013-11-22 05:37:00,
2013-11-21 22:42:00,37.9,35.2,30.42,WSW,238,0.0,0.0,90,0.06,,,0.12,0,LWC V2.00 B727,2013-11-22 05:42:00,
2013-11-21 22:47:00,37.9,35.2,30.42,WSW,238,0.0,0.0,90,0.06,,,0.12,0,LWC V2.00 B727,2013-11-22 05:47:00,
2013-11-21 22:52:00,37.8,35.1,30.42,WSW,238,0.0,0.0,90,0.07,,,0.13,0,LWC V2.00 B727,2013-11-22 05:52:00,
2013-11-21 22:57:00,37.7,35.0,30.42,WSW,238,0.0,1.0,90,0.09,,,0.14,0,LWC V2.00 B727,2013-11-22 05:57:00,
2013-11-21 23:02:00,37.6,34.9,30.42,WSW,238,0.0,1.0,90,0.11,,,0.15,0,LWC V2.00 B727,2013-11-22 06:02:00,
2013-11-21 23:07:00,37.3,34.4,30.43,WSW,237,0.0,0.0,89,0.10,,,0.15,0,LWC V2.00 B727,2013-11-22 06:07:00,
2013-11-21 23:12:00,37.1,34.2,30.43,WSW,238,0.0,0.0,89,0.10,,,0.16,0,LWC V2.00 B727,2013-11-22 06:12:00,
2013-11-21 23:17:00,36.8,33.9,30.43,WSW,238,2.0,3.0,89,0.08,,,0.17,0,LWC V2.00 B727,2013-11-22 06:17:00,
2013-11-21 23:22:00,36.5,33.6,30.43,WSW,238,0.0,0.0,89,0.09,,,0.18,0,LWC V2.00 B727,2013-11-22 06:22:00,
2013-11-21 23:27:00,36.2,33.3,30.43,WSW,237,0.0,2.0,89,0.09,,,0.18,0,LWC V2.00 B727,2013-11-22 06:27:00,
2013-11-21 23:32:00,36.0,33.1,30.43,WSW,238,1.0,1.0,89,0.07,,,0.19,0,LWC V2.00 B727,2013-11-22 06:32:00,
2013-11-21 23:37:00,35.8,32.9,30.43,WSW,238,0.0,1.0,89,0.07,,,0.19,0,LWC V2.00 B727,2013-11-22 06:37:00,
2013-11-21 23:42:00,35.6,32.7,30.43,WSW,237,0.0,0.0,89,0.08,,,0.20,0,LWC V2.00 B727,2013-11-22 06:42:00,
2013-11-21 23:47:00,35.5,32.6,30.43,WSW,237,0.0,0.0,89,0.06,,,0.20,0,LWC V2.00 B727,2013-11-22 06:47:00,
2013-11-21 23:52:00,35.3,32.4,30.43,WSW,238,0.0,0.0,89,0.06,,,0.21,0,LWC V2.00 B727,2013-11-22 06:52:00,
2013-11-21 23:57:00,35.1,32.2,30.43,WSW,238,0.0,0.0,89,0.06,,,0.21,0,LWC V2.00 B727,2013-11-22 06:57:00,